User: anonymous
Location: SAPM � Hemmingford
(45.0500°N, 73.5833°W)
Time: 05:26:52
(UTC-04:00)
Language:

Cosmos 1674 Rocket - Orbit

View from above orbital plane
View from above orbital plane
View from above satellite
View from above satellite

Ground track
Ground track

The orbit data is extracted from the following two-line orbital elements,

1 15945U 85069B   14234.80658628  .00000239  00000-0  26050-4 0  7347
2 15945 082.5297 016.7901 0021338 080.5977 061.1131 14.83384405568390
Epoch (UTC): 22 August 2014 19:21:29
Eccentricity: 0.0021338
inclination: 82.5297°
perigee height: 604 km
apogee height: 633 km
right ascension of ascending node: 16.7901°
argument of perigee: 80.5977°
revolutions per day: 14.83384405
mean anomaly at epoch: 61.1131°
orbit number at epoch: 56839

The dashed part of the orbit path shows where the satellite is in the earth's shadow,  

DLR